sat.trackr.live / text

‹ back to catalog

STARLINK-32433

NORAD 61852 · 2024-202H

PAYLOAD ACTIVE UNKNOWN

§ Identity

Operator
Country
US
Launch date
2024-11-07
Launch site
AFETR
Launch vehicle
Mass (kg)
RCS (m²)

Purposes: comms

External: N2YO · Heavens-Above · Gunter

§ Orbital elements

Epoch: 2026-09-21T05:03:48.936384Z

Period
94.27 min
Inclination
43.0018°
Eccentricity
0.0001211
Mean motion
15.27574102 rev/d
Perigee alt
482.2 km
Apogee alt
483.9 km
Semi-major
6,861.2 km
B*
2.2533e-6
RAAN
213.4807°
Arg perigee
270.7867°
Mean anomaly
89.2846°
Rev number
10,524

§ Raw data

STARLINK-324331 61852U 24202H   26264.21098306 -.00000200  00000+0  22533-5 0  99932 61852  43.0018 213.4807 0001211 270.7867  89.2846 15.27574102105240

JSON: /api/v1/satellites/61852 · /tle

For live sub-satellite position, see the globe view (requires WebGL).

§ Visibility from observer

Set your observer location to see the next 7 days of passes ≥ 10°. The values pass through the URL so the page stays shareable.

No JS? Fill the form by hand. The geolocation button needs JavaScript.